Weather History for Langdon, ND

Change the Weather History Date:

Tuesday, April 9, 2013

  Actual Average (KDVL) Record (KDVL)
Temperature  
Mean Temperature 10 °F -  
Max Temperature 24 °F 47 °F 74 °F (1987)
Min Temperature -4 °F 27 °F -2 °F (1997)
Degree Days  
Heating Degree Days 55    
Moisture  
Dew Point 6 °F    
Average Humidity 86    
Maximum Humidity 100    
Minimum Humidity 74    
Precipitation  
Precipitation 0.00 in - - ()
Sea Level Pressure  
Sea Level Pressure 30.34 in    
Wind  
Wind Speed 9 mph (NNW)    
Max Wind Speed 14 mph    
Max Gust Speed -    
Visibility 10 miles    
Events      
Averages and records for this station are not official NWS values.
T = Trace of Precipitation, MM = Missing Value Source: NWS Daily Summary

Daily Weather History Graph

Daily Weather History Graph

Search for Another Location

Airport:

Trip Planner

Search our weather history database for the weather conditions in past years. The results will help you decide how hot, cold, wet, or windy it might be!

Date:

Astronomy

Apr. 09, 2013 Rise Set
Actual Time 6:54 AM CDT 8:16 PM CDT
Civil Twilight 6:21 AM CDT 8:49 PM CDT
Nautical Twilight 5:42 AM CDT 9:29 PM CDT
Astronomical Twilight 4:59 AM CDT 10:12 PM CDT
Moon 6:19 AM CDT (4/9) 7:54 PM CDT (4/9)
Length of Visible Light 14h 27m
Length of Day
13h 22m
Waning Crescent, 1% of the Moon is Illuminated
Apr 9
Waning Crescent
Apr 10
New
Apr 18
First Quarter
Apr 25
Full
May 2
Last Quarter

Hourly Weather History & Observations

Time (CDT) Temp. Windchill Dew Point Humidity Pressure Visibility Wind Dir Wind Speed Gust Speed Precip Events Conditions
12:15 AM 5.0 °F -9.1 °F -0.4 °F 78% 30.29 in 10.0 mi NNW 9.2 mph - N/A   Clear
12:35 AM 1.4 °F -11.3 °F -2.2 °F 85% 30.30 in 10.0 mi NW 6.9 mph - N/A   Clear
12:55 AM -0.4 °F -14.7 °F -2.2 °F 92% 30.31 in 10.0 mi NW 8.1 mph - N/A   Clear
1:15 AM -0.4 °F -14.7 °F -4.0 °F 85% 30.31 in 10.0 mi NW 8.1 mph - N/A   Clear
1:35 AM 1.4 °F -14.5 °F -2.2 °F 85% 30.30 in 10.0 mi NNW 10.4 mph - N/A   Clear
1:55 AM 1.4 °F -16.9 °F -2.2 °F 85% 30.31 in 10.0 mi NW 13.8 mph - N/A   Clear
2:15 AM 1.4 °F -13.5 °F -2.2 °F 85% 30.30 in 10.0 mi NW 9.2 mph - N/A   Clear
2:35 AM 1.4 °F -15.3 °F -2.2 °F 85% 30.29 in 10.0 mi NNW 11.5 mph - N/A   Clear
2:55 AM -0.4 °F -17.6 °F -2.2 °F 92% 30.28 in 10.0 mi NNW 11.5 mph - N/A   Clear
3:15 AM -0.4 °F -18.4 °F -4.0 °F 85% 30.29 in 10.0 mi NNW 12.7 mph - N/A   Clear
3:35 AM -0.4 °F -15.7 °F -4.0 °F 85% 30.31 in 10.0 mi NNW 9.2 mph - N/A   Clear
3:55 AM -0.4 °F -19.2 °F -4.0 °F 85% 30.28 in 10.0 mi NNW 13.8 mph - N/A   Clear
4:15 AM -0.4 °F -15.7 °F -4.0 °F 85% 30.30 in 10.0 mi NNW 9.2 mph - N/A   Clear
4:35 AM -0.4 °F -17.6 °F -4.0 °F 85% 30.29 in 10.0 mi NNW 11.5 mph - N/A   Clear
4:55 AM -0.4 °F -15.7 °F -4.0 °F 85% 30.32 in 10.0 mi NNW 9.2 mph - N/A   Clear
5:15 AM -2.2 °F -14.2 °F -5.8 °F 85% 30.31 in 10.0 mi NNW 5.8 mph - N/A   Clear
5:35 AM -2.2 °F -15.6 °F -5.8 °F 85% 30.31 in 10.0 mi NNW 6.9 mph - N/A   Clear
5:55 AM -2.2 °F -14.2 °F -5.8 °F 85% 30.30 in 10.0 mi North 5.8 mph - N/A   Clear
6:15 AM -2.2 °F -15.6 °F -7.6 °F 78% 30.30 in 10.0 mi North 6.9 mph - N/A   Clear
6:35 AM -4.0 °F -19.0 °F -7.6 °F 85% 30.32 in 10.0 mi NNW 8.1 mph - N/A   Clear
6:55 AM -4.0 °F -16.3 °F -7.6 °F 85% 30.34 in 10.0 mi NNW 5.8 mph - N/A   Clear
7:15 AM -4.0 °F -17.8 °F -7.6 °F 85% 30.35 in 10.0 mi NNW 6.9 mph - N/A   Clear
7:35 AM -4.0 °F -17.8 °F -9.4 °F 78% 30.36 in 10.0 mi NW 6.9 mph - N/A   Clear
7:55 AM -2.2 °F -18.9 °F -5.8 °F 85% 30.36 in 10.0 mi NNW 10.4 mph - N/A   Clear
8:15 AM -2.2 °F -18.0 °F -5.8 °F 85% 30.37 in 10.0 mi NNW 9.2 mph - N/A   Clear
8:35 AM -2.2 °F -18.9 °F -4.0 °F 92% 30.37 in 10.0 mi NNW 10.4 mph - N/A   Clear
8:55 AM -0.4 °F -17.6 °F -4.0 °F 85% 30.38 in 10.0 mi NNW 11.5 mph - N/A   Clear
9:15 AM 1.4 °F -15.3 °F -0.4 °F 92% 30.37 in 10.0 mi NNW 11.5 mph - N/A   Clear
9:35 AM 1.4 °F -13.5 °F -0.4 °F 92% 30.37 in 10.0 mi NNW 9.2 mph - N/A   Clear
9:55 AM 3.2 °F -12.2 °F -0.4 °F 85% 30.37 in 10.0 mi NNW 10.4 mph - N/A   Clear
10:15 AM 5.0 °F -10.0 °F 1.4 °F 85% 30.38 in 10.0 mi NNW 10.4 mph - N/A   Clear
10:35 AM 5.0 °F -10.8 °F 3.2 °F 92% 30.38 in 10.0 mi NNW 11.5 mph - N/A   Clear
10:55 AM 6.8 °F -8.6 °F 5.0 °F 92% 30.38 in 10.0 mi NNW 11.5 mph - N/A   Clear
11:15 AM 8.6 °F -5.5 °F 5.0 °F 85% 30.38 in 10.0 mi North 10.4 mph - N/A   Clear
11:35 AM 10.4 °F -2.4 °F 5.0 °F 79% 30.39 in 10.0 mi NNW 9.2 mph - N/A   Clear
11:55 AM 10.4 °F 0.8 °F 6.8 °F 85% 30.40 in 10.0 mi North 5.8 mph - N/A   Clear
12:15 PM 12.2 °F 2.9 °F 8.6 °F 85% 30.40 in 10.0 mi North 5.8 mph - N/A   Clear
12:35 PM 14.0 °F 3.9 °F 8.6 °F 79% 30.41 in 10.0 mi NW 6.9 mph - N/A   Clear
12:55 PM 14.0 °F 3.9 °F 10.4 °F 86% 30.41 in 10.0 mi WNW 6.9 mph - N/A   Clear
1:15 PM 15.8 °F 6.1 °F 10.4 °F 79% 30.40 in 10.0 mi NW 6.9 mph - N/A   Clear
1:35 PM 15.8 °F 4.2 °F 10.4 °F 79% 30.39 in 10.0 mi NW 9.2 mph - N/A   Clear
1:55 PM 15.8 °F 5.1 °F 12.2 °F 86% 30.38 in 10.0 mi NW 8.1 mph - N/A   Clear
2:15 PM 17.6 °F 7.3 °F 14.0 °F 86% 30.38 in 10.0 mi NW 8.1 mph - N/A   Clear
2:35 PM 19.4 °F 9.5 °F 14.0 °F 80% 30.38 in 10.0 mi NW 8.1 mph - N/A   Clear
2:55 PM 19.4 °F 8.6 °F 14.0 °F 80% 30.37 in 10.0 mi NW 9.2 mph - N/A   Clear
3:15 PM 19.4 °F 8.6 °F 14.0 °F 80% 30.36 in 10.0 mi NW 9.2 mph - N/A   Clear
3:35 PM 19.4 °F 7.2 °F 15.8 °F 86% 30.36 in 10.0 mi NW 11.5 mph - N/A   Clear
3:55 PM 21.2 °F 8.9 °F 15.8 °F 80% 30.36 in 10.0 mi NW 12.7 mph - N/A   Clear
4:15 PM 23.0 °F 11.7 °F 17.6 °F 80% 30.35 in 10.0 mi NW 11.5 mph - N/A   Clear
4:35 PM 23.0 °F 11.7 °F 17.6 °F 80% 30.34 in 10.0 mi NNW 11.5 mph - N/A   Clear
4:55 PM 23.0 °F 10.6 °F 17.6 °F 80% 30.33 in 10.0 mi NNW 13.8 mph - N/A   Clear
5:15 PM 24.8 °F 14.6 °F 17.6 °F 74% 30.34 in 10.0 mi NNW 10.4 mph - N/A   Clear
5:35 PM 24.8 °F 14.6 °F 19.4 °F 80% 30.35 in 10.0 mi NW 10.4 mph - N/A   Clear
5:55 PM 24.8 °F 14.0 °F 19.4 °F 80% 30.34 in 10.0 mi NW 11.5 mph - N/A   Clear
6:15 PM 24.8 °F 16.1 °F 19.4 °F 80% 30.34 in 10.0 mi NW 8.1 mph - N/A   Clear
6:35 PM 23.0 °F 12.4 °F 19.4 °F 86% 30.34 in 10.0 mi NW 10.4 mph - N/A   Clear
6:55 PM 23.0 °F 11.1 °F 19.4 °F 86% 30.34 in 10.0 mi NW 12.7 mph - N/A   Clear
7:15 PM 23.0 °F 12.4 °F 19.4 °F 86% 30.34 in 10.0 mi NNW 10.4 mph - N/A   Clear
7:35 PM 21.2 °F 8.9 °F 17.6 °F 86% 30.33 in 10.0 mi NNW 12.7 mph - N/A   Clear
7:55 PM 19.4 °F 7.2 °F 15.8 °F 86% 30.33 in 10.0 mi NNW 11.5 mph - N/A   Clear
8:15 PM 17.6 °F 5.7 °F 15.8 °F 93% 30.31 in 10.0 mi NNW 10.4 mph - N/A   Clear
8:35 PM 17.6 °F 6.4 °F 14.0 °F 86% 30.32 in 10.0 mi NNW 9.2 mph - N/A   Clear
8:55 PM 15.8 °F 4.2 °F 14.0 °F 93% 30.32 in 10.0 mi NW 9.2 mph - N/A   Clear
9:35 PM 14.0 °F 3.9 °F 12.2 °F 93% 30.33 in 10.0 mi NW 6.9 mph - N/A   Clear
9:55 PM 12.2 °F 1.7 °F 10.4 °F 92% 30.31 in 10.0 mi NNW 6.9 mph - N/A   Clear
10:15 PM 10.4 °F -0.4 °F 10.4 °F 100% 30.32 in 10.0 mi NNW 6.9 mph - N/A   Clear
10:35 PM 10.4 °F 2.2 °F 8.6 °F 92% 30.32 in 10.0 mi NNW 4.6 mph - N/A   Clear
10:55 PM 8.6 °F -1.3 °F 8.6 °F 100% 30.33 in 10.0 mi NW 5.8 mph - N/A   Clear
11:15 PM 8.6 °F -1.3 °F 8.6 °F 100% 30.32 in 10.0 mi NNW 5.8 mph - N/A   Clear
11:35 PM 10.4 °F 0.8 °F 8.6 °F 92% 30.32 in 10.0 mi NNW 5.8 mph - N/A   Clear
11:55 PM 8.6 °F -2.6 °F 8.6 °F 100% 30.32 in 10.0 mi NNW 6.9 mph - N/A   Clear